Location: Freistadt
(48.5112°N, 14.5013°E)
Time: 00:14:56
(UTC+02:00)

M-CUBED/EXP-1 PRIME - Pass Details

Date: 09 April 2023
Orbit: 406 x 574 km, 101.7° (Epoch: 28 May)

Event Time Altitude Azimuth Distance (km) Brightness Sun altitude
Rises 03:22:52 0° 7° (N) 2,791 ? -26.3°
Reaches altitude 10° 03:25:32 10° 349° (N) 1,865 ? -26.0°
Enters shadow 03:27:25 17° 323° (NW) 1,437 ? -25.8°
